Location: Franzen
(48.6167°N, 15.3833°E)
Time: 08:40:05
(UTC+00:00)

Cosmos 1709 Rocket - Pass Details

Date: 01 August 2021
Orbit: 947 x 1002 km, 82.9° (Epoch: 18 September)

Event Time Altitude Azimuth Distance (km) Brightness Sun altitude
Exits shadow 23:30:35 46° 210° (SSW) 1,317 4.2 -23.4°
Maximum altitude 23:32:34 73° 281° (W) 1,046 4.1 -23.3°
Drops below altitude 10° 23:38:59 10° 6° (N) 2,787 7.5 -23.2°
Sets 23:41:33 0° 9° (N) 3,741 8.5 -23.1°
